Location: De Har
(53.3413°N, 6.6858°E)
Time: 07:42:02
(UTC+00:00)

IDEFIX/ARIANE 42P - Pass Details

Date: 22 April 2026
Orbit: 780 x 797 km, 98.6° (Epoch: 15 May)

Event Time Altitude Azimuth Distance (km) Brightness Sun altitude
Rises 03:27:18 0° 7° (N) 3,282 6.4 -7.6°
Reaches altitude 10° 03:30:26 10° 347° (NNW) 2,351 5.3 -7.2°
Maximum altitude 03:33:31 16° 310° (NW) 1,950 4.4 -6.8°
Drops below altitude 10° 03:36:36 10° 273° (W) 2,349 4.5 -6.4°
Enters shadow 03:38:06 - 262° (W) 2,753 4.8 -6.2°
